Regional Weather Roundup
Issued by NWS

Home | Current Version | Previous Version | Text Only | Print | Product List | Glossary Off
Versions: 1 2 3 4 5 6 7 8 9 10 11 12 13 14 15 16 17 18 19 20 21 22 23 24 25 26 27 28

000
ASUS45 KCYS 241810
RWRWY

WYOMING REGIONAL WEATHER ROUNDUP
NATIONAL WEATHER SERVICE CHEYENNE WY
1100 AM MST FRI NOV 24 2017

NOTE:  "FAIR" INDICATES FEW OR NO CLOUDS BELOW 12,000 FEET
WITH NO SIGNIFICANT WEATHER AND/OR OBSTRUCTIONS TO VISIBILITY.

WYZ001-241900-
YELLOWSTONE NATIONAL PARK

CITY           SKY/WX    TMP DP  RH WIND       PRES   REMARKS
LK YELLOWSTONE   N/A     37  22  54 VRB6      30.02S WCI  32
6HR MIN TEMP:  31; 6HR MAX TEMP:  37;

W YELLOWSTONE  NOT AVBL

$$
WYZ002>013-054>058-071-098>099-241900-
NORTHERN WYOMING

CITY           SKY/WX    TMP DP  RH WIND       PRES   REMARKS
JACKSON        CLOUDY    40  37  89 CALM      30.01R
CODY           FAIR      46  34  62 S5        29.92R
GREYBULL       FAIR      50  16  25 NW13      29.88R
6HR MIN TEMP:  47; 6HR MAX TEMP:  53; 6HR PCP:  0.01;

WORLAND        CLOUDY    49  36  61 SW6       29.90R
6HR MIN TEMP:  40; 6HR MAX TEMP:  49;

SHERIDAN       FAIR      50  24  36 NW18G28   29.91F
6HR MIN TEMP:  44; 6HR MAX TEMP:  50; 6HR PCP:  0.08;

BUFFALO        FAIR      46  19  34 N29G41    29.89R
6HR MIN TEMP:  43; 6HR MAX TEMP:  47; 6HR PCP: TRACE;

GILLETTE       FAIR      48  26  42 NW22G29   29.89R
6HR MIN TEMP:  43; 6HR MAX TEMP:  53; 6HR PCP:  0.05;

HULETT         FAIR      46  30  53 W18G29    29.88S
NEWCASTLE      FAIR      46  30  53 NW22G28   29.87R

$$
WYZ014>020-022>026-101>103-241900-
CENTRAL WYOMING

CITY           SKY/WX    TMP DP  RH WIND       PRES   REMARKS
BIG PINEY      PTSUNNY   42  38  85 N12       30.03R
6HR MIN TEMP:  36; 6HR MAX TEMP:  50; 6HR PCP:  0.01;

PINEDALE       LGT RAIN  36  34  93 W18G33    30.05R WCI  25
DUBOIS         DRIZZLE   36  34  93 NW10      29.97R WCI  28
LANDER         CLOUDY    47  36  65 NW13      29.93R
6HR MIN TEMP:  45; 6HR MAX TEMP:  55; 6HR PCP: TRACE;

RIVERTON       LGT RAIN  43  38  82 NW21G29   29.93R
6HR MIN TEMP:  43; 6HR MAX TEMP:  50; 6HR PCP:  0.01;

CASPER         LGT RAIN  46  37  71 N8        29.93R
6HR MIN TEMP:  41; 6HR MAX TEMP:  50; 6HR PCP: TRACE;

DOUGLAS        LGT RAIN  43  41  93 W5        29.95R
6HR MIN TEMP:  43; 6HR MAX TEMP:  58; 6HR PCP:  0.04;


$$
WYZ021-027>030-104>119-241900-
SOUTHERN WYOMING

CITY           SKY/WX    TMP DP  RH WIND       PRES   REMARKS
EVANSTON       FAIR      51  31  46 W22G33    30.08R
6HR MIN TEMP:  42; 6HR MAX TEMP:  51;

KEMMERER       FAIR      46  32  57 W20G28    30.05S
FORT BRIDGER   MOCLDY    49  32  52 W20G29    30.10R
ROCK SPRINGS   FAIR      49  32  52 W20       30.01F
6HR MIN TEMP:  38; 6HR MAX TEMP:  49;

DIXON          FAIR      51  32  48 SW8       30.04F
RAWLINS        FAIR      53  30  41 W26G37    29.96S
6HR MIN TEMP:  43; 6HR MAX TEMP:  53; 6HR PCP: TRACE;

SARATOGA       FAIR      54  32  43 W21G30    29.99F
LARAMIE        FAIR      54  30  40 W37G46    29.94R
6HR MIN TEMP:  43; 6HR MAX TEMP:  56;

CHEYENNE       FAIR      60  30  32 NW24G39   29.89S
6HR MIN TEMP:  51; 6HR MAX TEMP:  60;

TORRINGTON     FAIR      54  37  52 N18G33    29.88R
6HR MIN TEMP:  53; 6HR MAX TEMP:  60;

PINE BLUFFS    FAIR      61  30  31 NW26G38   29.88S

$$




USA.gov is the U.S. government's official web portal to all federal, state and local government web resources and services.